When you browse on this site, cookies collect data to enhance your experience and personalize the content and advertising you see.
Visit our Privacy Policy to learn more. By continuing to use the site, you agree to this use of cookies and data.
  • en Suisse
  • Liste des pays
  • À 7 jours
  • Température de l'eau
  • Carte météo
  • Widgets météo
  • user-avatar
    Se connecter

    Météo par heure à Rottenburg

    Ce jour, 31 Mai, Dimanche

    Heure Température Précipitation Vent Pression Humidité
    00:00 +8°C° 0 mm 2 m/s 729 mmHg 85%
    01:00 +9°C° 0 mm 1 m/s 729 mmHg 86%
    02:00 +8°C° 0 mm 1 m/s 729 mmHg 88%
    03:00 +8°C° 0 mm 1 m/s 729 mmHg 89%
    04:00 +7°C° 0 mm 1 m/s 729 mmHg 90%
    05:00 +8°C° 0 mm 1 m/s 729 mmHg 85%
    06:00 +10°C° 0 mm 1 m/s 729 mmHg 79%
    07:00 +11°C° 0 mm 1 m/s 729 mmHg 74%
    08:00 +13°C° 0 mm 2 m/s 729 mmHg 68%
    09:00 +13°C° 0 mm 3 m/s 729 mmHg 63%
    10:00 +15°C° 0 mm 4 m/s 729 mmHg 57%
    11:00 +15°C° 0 mm 4 m/s 729 mmHg 55%
    12:00 +17°C° 0 mm 4 m/s 729 mmHg 54%
    13:00 +18°C° 0 mm 4 m/s 729 mmHg 52%
    14:00 +18°C° 0 mm 4 m/s 729 mmHg 53%
    15:00 +18°C° 0 mm 4 m/s 729 mmHg 55%
    16:00 +18°C° 0 mm 4 m/s 729 mmHg 56%
    17:00 +17°C° 0 mm 4 m/s 729 mmHg 62%
    18:00 +16°C° 0 mm 3 m/s 729 mmHg 67%
    19:00 +16°C° 0 mm 3 m/s 729 mmHg 73%
    20:00 +13°C° 0 mm 3 m/s 730 mmHg 77%
    21:00 +12°C° 0 mm 3 m/s 730 mmHg 81%
    22:00 +10°C° 0 mm 3 m/s 730 mmHg 85%
    23:00 +10°C° 0 mm 3 m/s 730 mmHg 85%

    Demain, 1 Juin, Lundi

    Heure Température Précipitation Vent Pression Humidité
    00:00 +9°C° 0 mm 2 m/s 730 mmHg 85%
    01:00 +8°C° 0 mm 2 m/s 730 mmHg 86%
    02:00 +8°C° 0 mm 2 m/s 730 mmHg 87%
    03:00 +8°C° 0 mm 2 m/s 729 mmHg 88%
    04:00 +7°C° 0 mm 2 m/s 729 mmHg 89%
    05:00 +9°C° 0 mm 2 m/s 729 mmHg 86%
    06:00 +10°C° 0 mm 3 m/s 730 mmHg 82%
    07:00 +12°C° 0 mm 3 m/s 730 mmHg 78%
    08:00 +14°C° 0 mm 4 m/s 730 mmHg 73%
    09:00 +15°C° 0 mm 4 m/s 730 mmHg 68%
    10:00 +17°C° 0 mm 5 m/s 730 mmHg 62%
    11:00 +19°C° 0 mm 5 m/s 730 mmHg 60%
    12:00 +20°C° 0 mm 5 m/s 729 mmHg 57%
    13:00 +21°C° 0 mm 5 m/s 729 mmHg 54%
    14:00 +21°C° 0 mm 5 m/s 729 mmHg 56%
    15:00 +21°C° 0 mm 4 m/s 729 mmHg 57%
    16:00 +21°C° 0 mm 4 m/s 729 mmHg 58%
    17:00 +20°C° 0 mm 4 m/s 729 mmHg 63%
    18:00 +19°C° 0 mm 3 m/s 728 mmHg 69%
    19:00 +18°C° 0 mm 3 m/s 728 mmHg 74%
    20:00 +17°C° 0 mm 3 m/s 729 mmHg 78%
    21:00 +15°C° 0 mm 2 m/s 729 mmHg 81%
    22:00 +14°C° 0 mm 2 m/s 729 mmHg 85%
    23:00 +13°C° 0 mm 2 m/s 729 mmHg 87%

    Après-demain, 2 Juin, Mardi

    Heure Température Précipitation Vent Pression Humidité
    00:00 +12°C° 0 mm 2 m/s 729 mmHg 89%
    01:00 +12°C° 0 mm 2 m/s 728 mmHg 91%
    02:00 +10°C° 0 mm 2 m/s 728 mmHg 92%
    03:00 +10°C° 0 mm 2 m/s 728 mmHg 92%
    04:00 +10°C° 0 mm 1 m/s 728 mmHg 93%
    05:00 +12°C° 0 mm 2 m/s 728 mmHg 88%
    06:00 +13°C° 0 mm 2 m/s 728 mmHg 83%
    07:00 +14°C° 0 mm 2 m/s 728 mmHg 78%
    08:00 +16°C° 0 mm 3 m/s 728 mmHg 72%
    09:00 +18°C° 0 mm 3 m/s 728 mmHg 66%
    10:00 +19°C° 0 mm 4 m/s 728 mmHg 60%
    11:00 +20°C° 0 mm 4 m/s 727 mmHg 58%
    12:00 +21°C° 0 mm 4 m/s 727 mmHg 56%
    13:00 +22°C° 0 mm 4 m/s 726 mmHg 54%
    14:00 +22°C° 0 mm 4 m/s 726 mmHg 55%
    15:00 +22°C° 0 mm 4 m/s 725 mmHg 57%
    16:00 +22°C° 0 mm 4 m/s 725 mmHg 58%
    17:00 +21°C° 0 mm 4 m/s 725 mmHg 63%
    18:00 +20°C° 0 mm 3 m/s 724 mmHg 68%
    19:00 +18°C° 0 mm 3 m/s 724 mmHg 72%
    20:00 +17°C° 0 mm 2 m/s 724 mmHg 77%
    21:00 +15°C° 0 mm 2 m/s 724 mmHg 81%
    22:00 +13°C° 0 mm 1 m/s 724 mmHg 85%
    23:00 +12°C° 0 mm 1 m/s 724 mmHg 87%

    3 Juin, Mercredi

    Heure Température Précipitation Vent Pression Humidité
    00:00 +12°C° 0 mm 1 m/s 723 mmHg 88%
    01:00 +11°C° 0 mm 1 m/s 723 mmHg 89%
    02:00 +11°C° 0 mm 1 m/s 723 mmHg 90%
    03:00 +10°C° 0 mm 1 m/s 723 mmHg 91%
    04:00 +10°C° 0 mm 1 m/s 722 mmHg 92%
    05:00 +11°C° 0 mm 1 m/s 722 mmHg 87%
    06:00 +13°C° 0 mm 1 m/s 722 mmHg 82%
    07:00 +14°C° 0 mm 1 m/s 722 mmHg 78%
    08:00 +16°C° 0 mm 1 m/s 722 mmHg 71%
    09:00 +18°C° 0 mm 2 m/s 722 mmHg 64%
    10:00 +20°C° 0 mm 2 m/s 722 mmHg 58%
    11:00 +21°C° 0 mm 3 m/s 722 mmHg 55%
    12:00 +22°C° 0 mm 3 m/s 722 mmHg 53%
    13:00 +24°C° 0 mm 3 m/s 722 mmHg 50%
    14:00 +24°C° 0 mm 3 m/s 721 mmHg 52%
    15:00 +24°C° 0 mm 3 m/s 721 mmHg 53%
    16:00 +24°C° 0 mm 3 m/s 721 mmHg 54%
    17:00 +22°C° 0 mm 3 m/s 721 mmHg 61%
    18:00 +21°C° 0 mm 3 m/s 721 mmHg 68%
    19:00 +20°C° 0 mm 2 m/s 720 mmHg 74%
    20:00 +19°C° 0 mm 2 m/s 721 mmHg 78%
    21:00 +17°C° 0 mm 2 m/s 721 mmHg 81%
    22:00 +15°C° 0 mm 1 m/s 721 mmHg 84%
    23:00 +15°C° 0 mm 1 m/s 721 mmHg 83%

    4 Juin, Jeudi

    Heure Température Précipitation Vent Pression Humidité
    00:00 +14°C° 0 mm 1 m/s 721 mmHg 82%
    01:00 +14°C° 0 mm 1 m/s 721 mmHg 81%
    02:00 +14°C° 0 mm 1 m/s 721 mmHg 81%
    03:00 +13°C° 0 mm 1 m/s 721 mmHg 81%
    04:00 +13°C° 0 mm 1 m/s 721 mmHg 80%
    05:00 +15°C° 0 mm 1 m/s 721 mmHg 78%
    06:00 +16°C° 0 mm 1 m/s 721 mmHg 76%
    07:00 +18°C° 0 mm 1 m/s 722 mmHg 74%
    08:00 +19°C° 0.2 mm 1 m/s 722 mmHg 75%
    09:00 +20°C° 0.2 mm 1 m/s 722 mmHg 77%
    10:00 +21°C° 0.2 mm 1 m/s 722 mmHg 79%
    11:00 +22°C° 0.4 mm 1 m/s 722 mmHg 76%
    12:00 +23°C° 0.4 mm 1 m/s 722 mmHg 73%
    13:00 +24°C° 0.4 mm 1 m/s 722 mmHg 70%
    14:00 +24°C° 0.8 mm 1 m/s 722 mmHg 73%
    15:00 +23°C° 0.8 mm 1 m/s 722 mmHg 76%
    16:00 +21°C° 0.8 mm 0 m/s 721 mmHg 79%
    17:00 +22°C° 0.5 mm 1 m/s 721 mmHg 81%
    18:00 +22°C° 0.5 mm 1 m/s 721 mmHg 84%
    19:00 +21°C° 0.5 mm 1 m/s 721 mmHg 86%
    20:00 +20°C° 0.2 mm 1 m/s 721 mmHg 87%
    21:00 +19°C° 0.2 mm 1 m/s 721 mmHg 88%
    22:00 +18°C° 0.2 mm 1 m/s 721 mmHg 90%
    23:00 +18°C° 0 mm 1 m/s 721 mmHg 90%

    5 Juin, Vendredi

    Heure Température Précipitation Vent Pression Humidité
    00:00 +16°C° 0 mm 2 m/s 721 mmHg 90%
    01:00 +16°C° 0 mm 2 m/s 721 mmHg 91%
    02:00 +16°C° 0 mm 2 m/s 721 mmHg 91%
    03:00 +15°C° 0 mm 1 m/s 721 mmHg 92%
    04:00 +15°C° 0 mm 1 m/s 720 mmHg 92%
    05:00 +16°C° 0.2 mm 1 m/s 720 mmHg 91%
    06:00 +19°C° 0.2 mm 1 m/s 721 mmHg 90%
    07:00 +20°C° 0.2 mm 1 m/s 721 mmHg 89%
    08:00 +21°C° 0.1 mm 2 m/s 721 mmHg 81%
    09:00 +22°C° 0.1 mm 3 m/s 721 mmHg 72%
    10:00 +25°C° 0.1 mm 3 m/s 721 mmHg 64%
    11:00 +26°C° 0.1 mm 3 m/s 720 mmHg 61%
    12:00 +27°C° 0.1 mm 4 m/s 720 mmHg 58%
    13:00 +28°C° 0.1 mm 4 m/s 720 mmHg 55%
    14:00 +28°C° 0.1 mm 4 m/s 720 mmHg 55%
    15:00 +28°C° 0.1 mm 4 m/s 720 mmHg 55%
    16:00 +28°C° 0.1 mm 4 m/s 720 mmHg 55%
    17:00 +27°C° 0.1 mm 3 m/s 720 mmHg 62%
    18:00 +25°C° 0.1 mm 2 m/s 720 mmHg 70%
    19:00 +24°C° 0.1 mm 2 m/s 720 mmHg 77%
    20:00 +22°C° 0.1 mm 1 m/s 720 mmHg 80%
    21:00 +21°C° 0.1 mm 1 m/s 720 mmHg 83%
    22:00 +19°C° 0.1 mm 1 m/s 721 mmHg 87%
    23:00 +19°C° 0.4 mm 1 m/s 721 mmHg 88%
    Voir plus